GORIZONT 4 [-]

Last updated on Nov. 19, 2019, 4:25 a.m. UTC

1 11841U 80049A   19322.81823271 -.00000227  00000-0  00000+0 0  9996
2 11841  12.5431 319.2744 0004954 332.3619 196.7542  0.98630951209851
UTC
Height (km)
Latitude
Longitude
Inclination
Orbital Period
UTC large
Height (km)
Speed (km/s)
/
Latitude / Longitude
Inclination (degrees)
Orbital Period (minutes)
Azimuth
Elevation
Range (km)
Doppler Factor
iOS Compass Heading
iOS Angle

Next 30 passes for location: Hong Kong

Rise time Rise Azimuth (degrees) Set time Set Azimuth (degrees) Duration Max altitude (degrees)

No matching passes for this satellites